NOZ270 ENGM-ENCN

Flight info

Callsign NOZ270
Flight time 0h 35m
Altitude 30000
Route VIPPA DCT OSVAL
Aircraft B738/M-SDE2E3FGHIRWXY/LB1

Departure

Time 2026-05-04 06:18
Airport Oslo-Gardermoen International Airport (ENGM)

Arrival

Time 2026-05-04 06:53
Airport Kristiansand Airport (ENCN)
Time Latitude Longitude Altitude Speed Heading
2026-05-04 05:09 60.19520 11.09734 684 ft 0 kts 196°
2026-05-04 06:11 60.19562 11.09758 678 ft 0 kts 196°
2026-05-04 06:14 60.19839 11.09842 679 ft 15 kts 16°
2026-05-04 06:14 60.19938 11.09900 680 ft 13 kts 18°
2026-05-04 06:15 60.19966 11.10047 682 ft 13 kts 108°
2026-05-04 06:15 60.19939 11.10237 678 ft 16 kts 106°
2026-05-04 06:15 60.19903 11.10488 682 ft 21 kts 106°
2026-05-04 06:15 60.19860 11.10792 683 ft 23 kts 106°
2026-05-04 06:16 60.19816 11.11093 682 ft 22 kts 106°
2026-05-04 06:16 60.19773 11.11362 679 ft 17 kts 120°
2026-05-04 06:16 60.19729 11.11574 682 ft 16 kts 105°
2026-05-04 06:16 60.19695 11.11789 683 ft 16 kts 116°
2026-05-04 06:17 60.19646 11.11935 681 ft 6 kts 126°
2026-05-04 06:17 60.19624 11.11959 682 ft 6 kts 173°
2026-05-04 06:17 60.19597 11.11946 683 ft 0 kts 196°
2026-05-04 06:17 60.19508 11.11891 681 ft 47 kts 196°
2026-05-04 06:18 60.19176 11.11705 683 ft 100 kts 195°
2026-05-04 06:18 60.18285 11.11181 753 ft 157 kts 197°
2026-05-04 06:18 60.17280 11.10590 1762 ft 141 kts 199°
2026-05-04 06:20 60.07509 11.03099 6496 ft 263 kts 215°
2026-05-04 06:20 60.05969 11.01103 7697 ft 263 kts 217°
2026-05-04 06:21 59.99624 10.92526 11093 ft 310 kts 218°
2026-05-04 06:21 59.97811 10.90129 12069 ft 314 kts 218°
2026-05-04 06:22 59.95979 10.87730 13207 ft 315 kts 218°
2026-05-04 06:22 59.94132 10.85325 14202 ft 318 kts 218°
2026-05-04 06:25 59.68738 10.52786 25066 ft 340 kts 217°
2026-05-04 06:25 59.66752 10.50271 25904 ft 336 kts 217°
2026-05-04 06:26 59.64789 10.47788 26740 ft 333 kts 217°
2026-05-04 06:26 59.62864 10.45355 27520 ft 332 kts 217°
2026-05-04 06:26 59.60920 10.42899 28245 ft 332 kts 217°
2026-05-04 06:26 59.58976 10.40447 28992 ft 330 kts 217°
2026-05-04 06:27 59.50916 10.30292 29757 ft 368 kts 217°
2026-05-04 06:28 59.48693 10.27504 29759 ft 379 kts 217°
2026-05-04 06:28 59.46467 10.24720 29738 ft 389 kts 217°
2026-05-04 06:28 59.41779 10.18876 29747 ft 407 kts 216°
2026-05-04 06:29 59.36918 10.12841 29754 ft 422 kts 216°
2026-05-04 06:29 59.31904 10.06643 29733 ft 421 kts 216°
2026-05-04 06:30 59.26975 10.00576 29748 ft 417 kts 216°
2026-05-04 06:30 59.22094 9.94574 29702 ft 417 kts 216°
2026-05-04 06:31 59.17301 9.88713 29720 ft 388 kts 216°
2026-05-04 06:31 59.15064 9.85991 29720 ft 370 kts 216°
2026-05-04 06:31 59.12903 9.83358 29405 ft 361 kts 217°
2026-05-04 06:32 59.10794 9.80787 29136 ft 352 kts 217°
2026-05-04 06:33 58.96897 9.63920 26219 ft 328 kts 217°
2026-05-04 06:34 58.94960 9.61583 25739 ft 326 kts 217°
2026-05-04 06:34 58.93025 9.59252 25230 ft 327 kts 217°
2026-05-04 06:34 58.91093 9.56928 24813 ft 325 kts 217°
2026-05-04 06:34 58.89179 9.54631 24445 ft 322 kts 217°
2026-05-04 06:35 58.87283 9.52358 24066 ft 319 kts 217°
2026-05-04 06:36 58.74889 9.34022 19534 ft 334 kts 226°
2026-05-04 06:37 58.73169 9.30994 18797 ft 337 kts 226°
2026-05-04 06:37 58.71430 9.27949 18083 ft 339 kts 226°
2026-05-04 06:37 58.69674 9.24891 17307 ft 340 kts 225°
2026-05-04 06:37 58.67957 9.21912 16785 ft 334 kts 225°
2026-05-04 06:38 58.66237 9.18938 16255 ft 330 kts 225°
2026-05-04 06:38 58.64539 9.16007 15739 ft 326 kts 225°
2026-05-04 06:40 58.53395 8.96878 13256 ft 284 kts 226°
2026-05-04 06:40 58.51936 8.94386 12976 ft 277 kts 226°
2026-05-04 06:40 58.50513 8.91957 12707 ft 272 kts 226°
2026-05-04 06:40 58.49108 8.89559 12441 ft 270 kts 226°
2026-05-04 06:41 58.47716 8.87186 12191 ft 265 kts 226°
2026-05-04 06:41 58.46345 8.84851 11869 ft 263 kts 226°
2026-05-04 06:41 58.45001 8.82567 11550 ft 261 kts 226°
2026-05-04 06:41 58.43644 8.80260 11222 ft 260 kts 226°
2026-05-04 06:42 58.42293 8.77969 10896 ft 258 kts 226°
2026-05-04 06:42 58.40950 8.75692 10575 ft 257 kts 226°
2026-05-04 06:42 58.39612 8.73426 10260 ft 257 kts 226°
2026-05-04 06:44 58.30169 8.57507 8074 ft 265 kts 225°
2026-05-04 06:44 58.28791 8.55195 7738 ft 263 kts 225°
2026-05-04 06:44 58.27420 8.52899 7404 ft 262 kts 225°
2026-05-04 06:45 58.26049 8.50605 7072 ft 261 kts 225°
2026-05-04 06:45 58.24684 8.48321 6739 ft 261 kts 225°
2026-05-04 06:45 58.23324 8.46049 6409 ft 260 kts 225°
2026-05-04 06:45 58.21968 8.43786 6073 ft 259 kts 225°
2026-05-04 06:46 58.20612 8.41524 5748 ft 259 kts 225°
2026-05-04 06:46 58.19257 8.39266 5392 ft 258 kts 225°
2026-05-04 06:46 58.17926 8.37051 5066 ft 257 kts 224°
2026-05-04 06:46 58.16579 8.34811 4749 ft 256 kts 224°
2026-05-04 06:48 58.08245 8.19648 3350 ft 209 kts 239°
2026-05-04 06:48 58.07576 8.17296 3191 ft 204 kts 254°
2026-05-04 06:49 58.07271 8.14739 2997 ft 193 kts 269°
2026-05-04 06:50 58.11901 8.04568 1863 ft 131 kts 347°
2026-05-04 06:51 58.12761 8.04267 1720 ft 121 kts 349°
2026-05-04 06:51 58.13583 8.04130 1557 ft 117 kts 356°
2026-05-04 06:51 58.14403 8.04181 1370 ft 120 kts 359°
2026-05-04 06:51 58.15255 8.04315 1165 ft 124 kts
2026-05-04 06:52 58.16109 8.04513 962 ft 126 kts
2026-05-04 06:52 58.16988 8.04770 775 ft 128 kts
2026-05-04 06:52 58.17841 8.05220 625 ft 130 kts 18°
2026-05-04 06:52 58.18613 8.06173 412 ft 135 kts 30°
2026-05-04 06:53 58.19371 8.07155 202 ft 130 kts 28°
2026-05-04 06:53 58.20098 8.08109 53 ft 119 kts 33°
2026-05-04 06:53 58.20564 8.08731 55 ft 32 kts 35°
2026-05-04 06:53 58.20655 8.08868 56 ft 8 kts
2026-05-04 06:54 58.20662 8.08829 57 ft 3 kts 230°
2026-05-04 06:54 58.20640 8.08807 58 ft 4 kts 206°
2026-05-04 06:54 58.20613 8.08782 54 ft 6 kts 204°
2026-05-04 06:54 58.20553 8.08710 57 ft 15 kts 216°
2026-05-04 06:55 58.20451 8.08577 56 ft 20 kts 215°
2026-05-04 06:55 58.20421 8.08396 52 ft 17 kts 300°
2026-05-04 06:55 58.20475 8.08199 54 ft 17 kts 270°
2026-05-04 06:55 58.20416 8.08018 54 ft 16 kts 231°
2026-05-04 06:56 58.20348 8.07854 52 ft 15 kts 232°
2026-05-04 06:57 58.20246 8.07557 56 ft 0 kts 300°